Regional Weather Roundup
Issued by NWS

Home | Current Version | Previous Version | Text Only | Print | Product List | Glossary On
Versions: 1 2 3 4 5 6 7 8 9 10 11 12 13 14 15 16 17 18 19 20 21 22 23 24 25 26 27 28 29 30 31 32 33 34 35 36 37 38 39 40 41 42 43 44 45 46 47 48 49 50
000
ASUS45 KREV 041710
RWRNV
NEVADA REGIONAL WEATHER ROUNDUP
NATIONAL WEATHER SERVICE RENO NV
1000 AM PDT MON MAY 04 2015

NOTE: "FAIR" INDICATES FEW OR NO CLOUDS BELOW 12,000 FEET WITH NO
SIGNIFICANT WEATHER AND/OR OBSTRUCTIONS TO VISIBILITY.

NVZ001-003-004-041800-
WESTERN NEVADA

CITY           SKY/WX    TMP DP  RH WIND       PRES   REMARKS
RENO           PTSUNNY   65  27  23 S5        29.97F
CARSON CITY    FAIR      64  28  25 S3        29.98F
MINDEN         FAIR      63  36  36 N3        29.99
PYRAMID LAKE     N/A     63 N/A N/A N5          N/A
FALLON         PTSUNNY   69  27  20 CALM      29.92F
LOVELOCK       SUNNY     69  33  26 CALM      29.92S
HAWTHORNE      SUNNY     66  34  30 N5        29.95F
$$

NVZ002-CAZ072-073-041800-
NORTHERN AND CENTRAL SIERRA

CITY           SKY/WX    TMP DP  RH WIND       PRES   REMARKS
S. LAKE TAHOE  SUNNY     59  31  34 NE6       30.03F
TRUCKEE        MOSUNNY   55  30  38 CALM      30.04F
SQUAW VLY 8000   N/A     48  28  46 N2          N/A
SUSANVILLE     SUNNY     64  32  29 CALM      29.97
BLUE CANYON    SUNNY     60  29  30 NW6       30.03S
MAMMOTH LAKES  FAIR      61  28  29 SE3       30.05F
BRIDGEPORT     FAIR      59  30  33 VRB3      30.00F
$$

NVZ030-031-036-041800-
NORTHERN NEVADA

CITY           SKY/WX    TMP DP  RH WIND       PRES   REMARKS
ELKO           SUNNY     64  36  35 CALM      29.96F
WINNEMUCCA     NOT AVBL
WENDOVER       SUNNY     70  37  30 NE5       29.94S
$$

NVZ035-037-041800-
CENTRAL NEVADA

CITY           SKY/WX    TMP DP  RH WIND       PRES   REMARKS
ELY            SUNNY     64  31  28 VRB3      30.00F
EUREKA           N/A     61  32  33 E3        29.98S
$$

NVZ013-014-041800-
SOUTH CENTRAL NEVADA

CITY           SKY/WX    TMP DP  RH WIND       PRES   REMARKS
TONOPAH        NOT AVBL
$$

NVZ017-020-022-041800-
SOUTHERN NEVADA

CITY           SKY/WX    TMP DP  RH WIND       PRES   REMARKS
LAS VEGAS      PTSUNNY   80  36  20 VRB6      29.83R
N. LAS VEGAS   MOSUNNY   80  37  21 E20       29.86R
NELLIS AFB     PTSUNNY   79  43  27 E17G24    29.85R
HENDERSON      CLOUDY    77  40  26 NE9       29.90R
MERCURY        MOSUNNY   73  25  16 SW3       29.88S
$$


USA.gov is the U.S. government's official web portal to all federal, state and local government web resources and services.